Overview Statistics Trail Chart Weather Telemetry Raw packets
 

This is the latest recevied weather packets stored in our database for station/object NR0A-4. If no packets are shown the sender has not sent any weather packets the latest 10 day(s).

<< 18 19 20 21 22 23 24 >>
Time Temp. Humidity Pressure Rain* Wind** Luminosity Snow
1788528304 21.67° C 86% 1011.8 hPa 0 mm - 33 W/m² -
1788528004 21.67° C 86% 1011.8 hPa 0 mm - 32 W/m² -
1788527704 21.67° C 86% 1011.8 hPa 0 mm - 33 W/m² -
1788527404 21.67° C 86% 1011.7 hPa 0 mm - 30 W/m² -
1788527104 21.11° C 86% 1011.7 hPa 0 mm - 28 W/m² -
1788526804 21.11° C 86% 1011.6 hPa 0 mm - 26 W/m² -
1788526505 21.11° C 86% 1011.4 hPa 0 mm - 25 W/m² -
1788526204 21.11° C 86% 1011.6 hPa 0 mm - 23 W/m² -
1788525904 21.11° C 86% 1011.4 hPa 0 mm - 21 W/m² -
1788525604 21.11° C 86% 1011.4 hPa 0 mm - 19 W/m² -
1788525304 21.11° C 86% 1011.4 hPa 0 mm - 18 W/m² -
1788525004 21.11° C 86% 1011.4 hPa 0 mm - 16 W/m² -
1788524703 21.11° C 85% 1011.2 hPa 0 mm - 14 W/m² -
1788524404 21.11° C 85% 1011.2 hPa 0 mm - 12 W/m² -
1788524105 21.11° C 85% 1011.1 hPa 0 mm - 11 W/m² -
1788523804 21.11° C 85% 1011.1 hPa 0 mm - 9 W/m² -
1788523504 21.11° C 85% 1011 hPa 0 mm - 0 W/m² -
1788523203 21.11° C 84% 1010.9 hPa 0 mm - 0 W/m² -
1788522904 21.67° C 84% 1010.9 hPa 0 mm - 0 W/m² -
1788522604 21.67° C 84% 1010.9 hPa 0 mm - 0 W/m² -
1788522304 21.67° C 83% 1010.8 hPa 0 mm - 0 W/m² -
1788522004 21.67° C 83% 1010.7 hPa 0 mm - 0 W/m² -
1788521704 21.67° C 83% 1010.5 hPa 0 mm - 0 W/m² -
1788521405 21.67° C 83% 1010.6 hPa 0 mm - 0 W/m² -
1788521104 21.67° C 83% 1010.5 hPa 0 mm - 0 W/m² -

* Rain latest hour (hover to see other rain measurements)
** Current wind speed in m/s (hover to see current wind gust speed)